TimeMDT,TemperatureF,Dew PointF,Humidity,Sea Level PressureIn,VisibilityMPH,Wind Direction,Wind SpeedMPH,Gust SpeedMPH,PrecipitationIn,Events,Conditions,WindDirDegrees,DateUTC
12:00 AM,23.0,-0.4,36,30.50,10.0,West,5.8,-,N/A,,Clear,260,2013-05-03 06:00:00
12:20 AM,21.2,-2.2,36,30.49,10.0,WNW,6.9,-,N/A,,Clear,300,2013-05-03 06:20:00
12:40 AM,21.2,-2.2,36,30.49,10.0,West,9.2,-,N/A,,Clear,260,2013-05-03 06:40:00
1:00 AM,21.2,-2.2,36,30.49,10.0,WSW,9.2,-,N/A,,Clear,250,2013-05-03 07:00:00
1:20 AM,23.0,-4.0,31,30.49,10.0,West,6.9,-,N/A,,Clear,270,2013-05-03 07:20:00
1:40 AM,21.2,-5.8,30,30.48,10.0,WNW,9.2,-,N/A,,Clear,290,2013-05-03 07:40:00
2:00 AM,23.0,-9.4,24,30.47,10.0,WNW,5.8,-,N/A,,Clear,300,2013-05-03 08:00:00
2:20 AM,23.0,-9.4,24,30.46,10.0,WSW,5.8,-,N/A,,Clear,240,2013-05-03 08:20:00
2:40 AM,23.0,-9.4,24,30.46,10.0,WSW,5.8,-,N/A,,Clear,240,2013-05-03 08:40:00
3:00 AM,23.0,-7.6,26,30.45,10.0,SW,8.1,-,N/A,,Clear,230,2013-05-03 09:00:00
3:20 AM,23.0,-7.6,26,30.44,10.0,WSW,10.4,-,N/A,,Clear,250,2013-05-03 09:20:00
3:40 AM,23.0,-4.0,31,30.44,10.0,WSW,11.5,-,N/A,,Clear,250,2013-05-03 09:40:00
4:00 AM,23.0,-5.8,28,30.43,10.0,SW,10.4,-,N/A,,Clear,230,2013-05-03 10:00:00
4:20 AM,23.0,-4.0,31,30.43,10.0,SW,11.5,-,N/A,,Clear,230,2013-05-03 10:20:00
4:40 AM,23.0,-4.0,31,30.44,10.0,WSW,11.5,-,N/A,,Clear,240,2013-05-03 10:40:00
5:00 AM,23.0,-4.0,31,30.43,10.0,WSW,11.5,-,N/A,,Clear,250,2013-05-03 11:00:00
5:20 AM,23.0,-0.4,36,30.42,10.0,West,12.7,-,N/A,,Clear,270,2013-05-03 11:20:00
5:40 AM,23.0,-2.2,33,30.41,10.0,West,10.4,16.1,N/A,,Clear,260,2013-05-03 11:40:00
6:00 AM,24.8,-4.0,28,30.41,10.0,West,8.1,-,N/A,,Clear,270,2013-05-03 12:00:00
6:20 AM,24.8,-5.8,26,30.41,10.0,WNW,5.8,-,N/A,,Clear,290,2013-05-03 12:20:00
6:40 AM,26.6,-9.4,21,30.41,10.0,WNW,6.9,-,N/A,,Clear,290,2013-05-03 12:40:00
7:00 AM,28.4,-13.0,16,30.40,10.0,WNW,5.8,-,N/A,,Clear,300,2013-05-03 13:00:00
7:20 AM,28.4,-11.2,18,30.40,10.0,West,5.8,-,N/A,,Clear,280,2013-05-03 13:20:00
7:40 AM,28.4,-9.4,19,30.41,10.0,WNW,6.9,-,N/A,,Clear,290,2013-05-03 13:40:00
8:00 AM,30.2,-7.6,19,30.41,10.0,North,4.6,-,N/A,,Clear,350,2013-05-03 14:00:00
8:20 AM,30.2,-5.8,21,30.40,10.0,Calm,Calm,-,N/A,,Clear,0,2013-05-03 14:20:00
8:40 AM,32.0,-0.4,25,30.40,10.0,NNE,4.6,-,N/A,,Clear,20,2013-05-03 14:40:00
9:00 AM,32.0,-0.4,25,30.40,10.0,ENE,3.5,-,N/A,,Clear,70,2013-05-03 15:00:00
9:20 AM,32.0,-0.4,25,30.39,10.0,Calm,Calm,-,N/A,,Clear,0,2013-05-03 15:20:00
9:40 AM,32.0,1.4,27,30.39,10.0,ENE,4.6,-,N/A,,Clear,70,2013-05-03 15:40:00
10:00 AM,32.0,1.4,27,30.38,10.0,SSE,3.5,-,N/A,,Clear,150,2013-05-03 16:00:00
10:20 AM,32.0,1.4,27,30.38,10.0,SSW,5.8,-,N/A,,Clear,210,2013-05-03 16:20:00
10:40 AM,32.0,-0.4,25,30.38,10.0,SSW,6.9,-,N/A,,Clear,200,2013-05-03 16:40:00
11:00 AM,32.0,3.2,30,30.38,10.0,SSW,10.4,-,N/A,,Clear,210,2013-05-03 17:00:00
11:20 AM,32.0,3.2,30,30.38,10.0,SSW,10.4,16.1,N/A,,Clear,210,2013-05-03 17:20:00
11:40 AM,32.0,5.0,32,30.37,10.0,SSW,9.2,-,N/A,,Clear,200,2013-05-03 17:40:00
12:00 PM,32.0,8.6,38,30.37,10.0,SSW,11.5,17.3,N/A,,Clear,210,2013-05-03 18:00:00
12:20 PM,32.0,8.6,38,30.37,10.0,South,8.1,17.3,N/A,,Clear,190,2013-05-03 18:20:00
12:40 PM,33.8,8.6,35,30.36,10.0,SSW,9.2,-,N/A,,Clear,200,2013-05-03 18:40:00
1:00 PM,33.8,10.4,38,30.36,10.0,SW,9.2,17.3,N/A,,Clear,220,2013-05-03 19:00:00
1:40 PM,33.8,8.6,35,30.34,10.0,SW,11.5,19.6,N/A,,Clear,230,2013-05-03 19:40:00
2:00 PM,33.8,8.6,35,30.34,10.0,SSW,10.4,19.6,N/A,,Clear,210,2013-05-03 20:00:00
2:20 PM,33.8,8.6,35,30.34,10.0,SW,15.0,24.2,N/A,,Clear,230,2013-05-03 20:20:00
2:40 PM,35.6,8.6,33,30.33,10.0,SSW,15.0,31.1,N/A,,Clear,210,2013-05-03 20:40:00
3:00 PM,35.6,10.4,35,30.33,10.0,SW,13.8,23.0,N/A,,Clear,230,2013-05-03 21:00:00
3:20 PM,35.6,10.4,35,30.32,10.0,SSW,12.7,23.0,N/A,,Clear,210,2013-05-03 21:20:00
3:40 PM,35.6,10.4,35,30.31,10.0,SSW,13.8,24.2,N/A,,Clear,210,2013-05-03 21:40:00
4:00 PM,35.6,10.4,35,30.30,10.0,SSW,12.7,26.5,N/A,,Clear,200,2013-05-03 22:00:00
4:20 PM,35.6,8.6,33,30.29,10.0,SSW,13.8,26.5,N/A,,Clear,200,2013-05-03 22:20:00
4:40 PM,37.4,8.6,30,30.29,10.0,SW,16.1,24.2,N/A,,Clear,230,2013-05-03 22:40:00
5:00 PM,37.4,10.4,33,30.27,10.0,SW,21.9,27.6,N/A,,Clear,230,2013-05-03 23:00:00
5:20 PM,37.4,10.4,33,30.27,10.0,SSW,16.1,21.9,N/A,,Clear,210,2013-05-03 23:20:00
5:40 PM,37.4,10.4,33,30.27,10.0,SW,17.3,23.0,N/A,,Clear,220,2013-05-03 23:40:00
6:00 PM,37.4,10.4,33,30.27,10.0,SW,15.0,26.5,N/A,,Clear,220,2013-05-04 00:00:00
6:20 PM,37.4,12.2,36,30.27,10.0,SW,19.6,25.3,N/A,,Clear,220,2013-05-04 00:20:00
6:40 PM,37.4,10.4,33,30.27,10.0,WSW,17.3,26.5,N/A,,Clear,240,2013-05-04 00:40:00
7:00 PM,35.6,10.4,35,30.26,10.0,SW,16.1,27.6,N/A,,Clear,230,2013-05-04 01:00:00
7:20 PM,35.6,10.4,35,30.26,10.0,SW,21.9,28.8,N/A,,Clear,230,2013-05-04 01:20:00
7:40 PM,33.8,10.4,38,30.25,10.0,WSW,18.4,25.3,N/A,,Clear,240,2013-05-04 01:40:00
8:00 PM,33.8,10.4,38,30.24,10.0,SW,23.0,27.6,N/A,,Clear,230,2013-05-04 02:00:00
8:20 PM,32.0,10.4,41,30.24,10.0,SW,21.9,26.5,N/A,,Clear,230,2013-05-04 02:20:00
8:40 PM,32.0,10.4,41,30.25,10.0,SW,20.7,26.5,N/A,,Clear,230,2013-05-04 02:40:00
9:00 PM,32.0,8.6,38,30.25,10.0,SW,20.7,26.5,N/A,,Clear,220,2013-05-04 03:00:00
9:20 PM,32.0,8.6,38,30.26,10.0,SW,20.7,26.5,N/A,,Clear,220,2013-05-04 03:20:00
9:40 PM,32.0,6.8,35,30.26,10.0,SW,20.7,25.3,N/A,,Clear,220,2013-05-04 03:40:00
10:00 PM,30.2,5.0,34,30.27,10.0,SW,19.6,24.2,N/A,,Clear,220,2013-05-04 04:00:00
10:20 PM,30.2,5.0,34,30.27,10.0,SW,18.4,23.0,N/A,,Clear,220,2013-05-04 04:20:00
10:40 PM,30.2,5.0,34,30.27,10.0,SW,18.4,-,N/A,,Clear,220,2013-05-04 04:40:00
11:00 PM,30.2,3.2,32,30.26,10.0,SW,13.8,19.6,N/A,,Clear,220,2013-05-04 05:00:00
11:20 PM,30.2,3.2,32,30.26,10.0,SW,15.0,-,N/A,,Clear,230,2013-05-04 05:20:00
11:40 PM,30.2,3.2,32,30.25,10.0,WSW,12.7,-,N/A,,Clear,240,2013-05-04 05:40:00